Weather History for KSNL - September, 2013

Change the Weather History Date:

Sunday, September 8, 2013

  Actual Average (KTIK) Record (KTIK)
Temperature  
Mean Temperature 86 °F -  
Max Temperature 98 °F 84 °F 96 °F (1998)
Min Temperature 73 °F 65 °F 53 °F (2004)
Cooling Degree Days 20    
Growing Degree Days 36 (Base 50)    
Moisture  
Dew Point 69 °F    
Average Humidity 59    
Maximum Humidity 88    
Minimum Humidity 37    
Precipitation  
Precipitation 0.00 in - - ()
Sea Level Pressure  
Sea Level Pressure 29.97 in    
Wind  
Wind Speed 4 mph (South)    
Max Wind Speed 10 mph    
Max Gust Speed -    
Visibility 10 miles    
Events      
Averages and records for this station are not official NWS values.
T = Trace of Precipitation, MM = Missing Value Source: NWS Daily Summary

Daily Weather History Graph

Daily Weather History Graph

Search for Another Location

Airport or City:

Trip Planner

Search our weather history database for the weather conditions in past years. The results will help you decide how hot, cold, wet, or windy it might be!

Date:

Astronomy

Sep. 08, 2013 Rise Set
Actual Time 7:05 AM CDT 7:44 PM CDT
Civil Twilight 6:39 AM CDT 8:10 PM CDT
Nautical Twilight 6:09 AM CDT 8:40 PM CDT
Astronomical Twilight 5:38 AM CDT 9:11 PM CDT
Moon 10:15 AM CDT (9/8) 9:30 PM CDT (9/8)
Length of Visible Light 13h 30m
Length of Day
12h 38m
Waxing Crescent, 11% of the Moon is Illuminated
Sep 8
Waxing Crescent
Sep 12
First Quarter
Sep 19
Full
Sep 26
Last Quarter
Oct 4
New

Hourly Weather History & Observations

Time (CDT) Temp. Heat Index Dew Point Humidity Pressure Visibility Wind Dir Wind Speed Gust Speed Precip Events Conditions
12:15 AM 80.6 °F 83.9 °F 69.8 °F 70% 29.98 in 10.0 mi Calm Calm - N/A   Clear
12:35 AM 80.6 °F 84.6 °F 71.6 °F 74% 29.98 in 10.0 mi Calm Calm - N/A   Clear
12:55 AM 78.8 °F - 69.8 °F 74% 29.98 in 10.0 mi Calm Calm - N/A   Clear
1:15 AM 78.8 °F - 69.8 °F 74% 29.98 in 10.0 mi SSW 3.5 mph - N/A   Clear
1:35 AM 78.8 °F - 69.8 °F 74% 29.98 in 10.0 mi Calm Calm - N/A   Clear
1:55 AM 78.8 °F - 69.8 °F 74% 29.98 in 10.0 mi South 3.5 mph - N/A   Clear
2:15 AM 78.8 °F - 69.8 °F 74% 29.98 in 10.0 mi South 3.5 mph - N/A   Clear
2:35 AM 78.8 °F - 69.8 °F 74% 29.98 in 10.0 mi South 3.5 mph - N/A   Clear
2:55 AM 78.8 °F - 69.8 °F 74% 29.98 in 10.0 mi South 3.5 mph - N/A   Clear
3:15 AM 78.8 °F - 69.8 °F 74% 29.98 in 10.0 mi South 4.6 mph - N/A   Clear
3:35 AM 78.8 °F - 69.8 °F 74% 29.98 in 10.0 mi South 5.8 mph - N/A   Clear
3:55 AM 77.0 °F - 69.8 °F 78% 29.98 in 10.0 mi South 6.9 mph - N/A   Clear
4:15 AM 77.0 °F - 68.0 °F 74% 29.99 in 10.0 mi SSW 3.5 mph - N/A   Clear
4:35 AM 77.0 °F - 68.0 °F 74% 29.99 in 10.0 mi SSW 3.5 mph - N/A   Clear
4:55 AM 77.0 °F - 68.0 °F 74% 29.99 in 10.0 mi SSW 4.6 mph - N/A   Clear
5:15 AM 77.0 °F - 69.8 °F 78% 29.98 in 10.0 mi SSW 3.5 mph - N/A   Clear
5:35 AM 77.0 °F - 69.8 °F 78% 29.98 in 10.0 mi Calm Calm - N/A   Clear
5:55 AM 73.4 °F - 68.0 °F 83% 29.99 in 10.0 mi Calm Calm - N/A   Clear
6:15 AM 73.4 °F - 68.0 °F 83% 29.99 in 10.0 mi SSW 3.5 mph - N/A   Clear
6:35 AM 73.4 °F - 68.0 °F 83% 29.99 in 10.0 mi SSW 3.5 mph - N/A   Clear
6:55 AM 73.4 °F - 68.0 °F 83% 29.99 in 10.0 mi SSW 3.5 mph - N/A   Clear
7:15 AM 73.4 °F - 68.0 °F 83% 30.00 in 10.0 mi South 4.6 mph - N/A   Clear
7:35 AM 73.4 °F - 69.8 °F 88% 30.00 in 10.0 mi SSW 3.5 mph - N/A   Clear
7:55 AM 77.0 °F - 71.6 °F 83% 30.00 in 10.0 mi South 5.8 mph - N/A   Clear
8:15 AM 77.0 °F - 69.8 °F 78% 30.00 in 10.0 mi South 6.9 mph - N/A   Clear
8:35 AM 78.8 °F - 69.8 °F 74% 30.00 in 10.0 mi SSW 5.8 mph - N/A   Clear
8:55 AM 80.6 °F 84.6 °F 71.6 °F 74% 30.01 in 10.0 mi SSW 5.8 mph - N/A   Clear
9:15 AM 80.6 °F 83.9 °F 69.8 °F 70% 30.00 in 10.0 mi SSW 8.1 mph - N/A   Clear
9:35 AM 82.4 °F 87.2 °F 71.6 °F 70% 30.00 in 10.0 mi SW 6.9 mph - N/A   Clear
9:55 AM 86.0 °F 91.8 °F 71.6 °F 62% 30.01 in 10.0 mi SW 6.9 mph - N/A   Clear
10:15 AM 87.8 °F 93.8 °F 71.6 °F 58% 30.01 in 10.0 mi SW 6.9 mph - N/A   Clear
10:35 AM 87.8 °F 93.8 °F 71.6 °F 58% 30.01 in 10.0 mi SW 8.1 mph - N/A   Clear
10:55 AM 91.4 °F 98.4 °F 71.6 °F 52% 30.02 in 10.0 mi SW 8.1 mph - N/A   Clear
11:15 AM 91.4 °F 98.4 °F 71.6 °F 52% 30.02 in 10.0 mi SW 8.1 mph - N/A   Clear
11:35 AM 91.4 °F 98.4 °F 71.6 °F 52% 30.02 in 10.0 mi SSW 5.8 mph - N/A   Clear
11:55 AM 95.0 °F 103.2 °F 71.6 °F 47% 30.02 in 10.0 mi SW 4.6 mph - N/A   Clear
12:15 PM 95.0 °F 103.2 °F 71.6 °F 47% 30.01 in 10.0 mi SW 4.6 mph - N/A   Clear
12:35 PM 96.8 °F 105.1 °F 71.6 °F 44% 30.00 in 10.0 mi SSW 6.9 mph - N/A   Clear
12:55 PM 96.8 °F 105.1 °F 71.6 °F 44% 29.99 in 10.0 mi South 6.9 mph - N/A   Clear
1:15 PM 96.8 °F 103.1 °F 69.8 °F 41% 29.99 in 10.0 mi SSW 9.2 mph - N/A   Clear
1:35 PM 96.8 °F 103.1 °F 69.8 °F 41% 29.99 in 10.0 mi SW 10.4 mph - N/A   Clear
1:55 PM 96.8 °F 103.1 °F 69.8 °F 41% 29.99 in 10.0 mi South 8.1 mph - N/A   Clear
2:15 PM 98.6 °F 105.5 °F 69.8 °F 39% 29.98 in 10.0 mi SSW 9.2 mph - N/A   Clear
2:35 PM 98.6 °F 104.1 °F 68.0 °F 37% 29.97 in 10.0 mi SSE 8.1 mph - N/A   Clear
2:55 PM 98.6 °F 105.5 °F 69.8 °F 39% 29.96 in 10.0 mi SSW 9.2 mph - N/A   Clear
3:15 PM 98.6 °F 105.5 °F 69.8 °F 39% 29.96 in 10.0 mi SSE 8.1 mph - N/A   Clear
3:35 PM 98.6 °F 105.5 °F 69.8 °F 39% 29.95 in 10.0 mi South 5.8 mph - N/A   Clear
3:55 PM 98.6 °F 104.1 °F 68.0 °F 37% 29.94 in 10.0 mi South 10.4 mph - N/A   Clear
4:15 PM 98.6 °F 105.5 °F 69.8 °F 39% 29.94 in 10.0 mi South 8.1 mph - N/A   Clear
4:35 PM 98.6 °F 104.1 °F 68.0 °F 37% 29.94 in 10.0 mi South 9.2 mph - N/A   Clear
4:55 PM 98.6 °F 104.1 °F 68.0 °F 37% 29.93 in 10.0 mi SSE 10.4 mph - N/A   Clear
5:15 PM 98.6 °F 104.1 °F 68.0 °F 37% 29.92 in 10.0 mi SSW 5.8 mph - N/A   Clear
5:35 PM 98.6 °F 104.1 °F 68.0 °F 37% 29.92 in 10.0 mi South 8.1 mph - N/A   Clear
5:55 PM 96.8 °F 101.8 °F 68.0 °F 39% 29.92 in 10.0 mi South 6.9 mph - N/A   Clear
6:15 PM 96.8 °F 101.8 °F 68.0 °F 39% 29.92 in 10.0 mi SSE 6.9 mph - N/A   Clear
6:35 PM 96.8 °F 101.8 °F 68.0 °F 39% 29.92 in 10.0 mi SSE 6.9 mph - N/A   Clear
6:55 PM 96.8 °F 101.8 °F 68.0 °F 39% 29.92 in 10.0 mi SSE 5.8 mph - N/A   Clear
7:15 PM 95.0 °F 99.5 °F 68.0 °F 41% 29.92 in 10.0 mi SSE 3.5 mph - N/A   Clear
7:35 PM 91.4 °F 95.4 °F 68.0 °F 46% 29.92 in 10.0 mi SSE 3.5 mph - N/A   Clear
7:55 PM 91.4 °F 95.4 °F 68.0 °F 46% 29.93 in 10.0 mi Calm Calm - N/A   Clear
8:15 PM 87.8 °F 90.4 °F 66.2 °F 49% 29.93 in 10.0 mi Calm Calm - N/A   Clear
8:35 PM 87.8 °F 91.4 °F 68.0 °F 52% 29.93 in 10.0 mi SSE 5.8 mph - N/A   Clear
8:55 PM 86.0 °F 89.4 °F 68.0 °F 55% 29.94 in 10.0 mi SSE 4.6 mph - N/A   Clear
9:15 PM 86.0 °F 89.4 °F 68.0 °F 55% 29.94 in 10.0 mi South 5.8 mph - N/A   Clear
9:35 PM 86.0 °F 88.2 °F 66.2 °F 51% 29.94 in 10.0 mi SSE 5.8 mph - N/A   Clear
9:55 PM 84.2 °F 86.6 °F 66.2 °F 55% 29.95 in 10.0 mi SSE 5.8 mph - N/A   Clear
10:15 PM 84.2 °F 86.6 °F 66.2 °F 55% 29.95 in 10.0 mi South 5.8 mph - N/A   Clear
10:35 PM 84.2 °F 86.6 °F 66.2 °F 55% 29.96 in 10.0 mi South 5.8 mph - N/A   Clear
10:55 PM 82.4 °F 84.6 °F 66.2 °F 58% 29.96 in 10.0 mi South 4.6 mph - N/A   Clear
11:15 PM 82.4 °F 84.6 °F 66.2 °F 58% 29.96 in 10.0 mi South 4.6 mph - N/A   Clear
11:35 PM 80.6 °F 82.7 °F 66.2 °F 61% 29.96 in 10.0 mi South 4.6 mph - N/A   Clear
11:55 PM 80.6 °F 82.7 °F 66.2 °F 61% 29.96 in 10.0 mi South 4.6 mph - N/A   Clear